Location: Crescent
(42.8242°N, 73.7329°W)
Time: 21:32:44
(UTC+00:00)

SR - Pass Details

Date: 22 February 2026
Orbit: 573 x 848 km, 66.7° (Epoch: 6 March)

Event Time Altitude Azimuth Distance (km) Brightness Sun altitude
Rises 07:29:29 0° 182° (S) 2,763 - -45.2°
Reaches altitude 10° 07:31:53 10° 171° (S) 1,877 - -44.8°
Maximum altitude 07:35:29 28° 111° (ESE) 1,104 - -44.3°
Drops below altitude 10° 07:39:13 10° 52° (NE) 1,956 - -43.7°
Exits shadow 07:40:24 - 46° (NE) 2,386 ? -43.5°
Sets 07:41:46 0° 41° (NE) 2,902 ? -43.3°
